Погода в Каскаре

Россия / Тюменская область     57°10′40″N   65°55′24″E
темп.,
°C
ветер,
м/с
пор.,
м/с
влажн.,
%
обл.,
%
осадки,
мм/ч
давл.,
гПа
погр.,
м
14 мая, пт
пт1423:00+17всв37615 0.0 1025133
02:00+15вюв22655 0.0 102530
05:00+14ююв22665 0.0 102626
08:00+19ююз345434 0.0 1026307
11:00+25юз4538100 0.0 10251094
14:00+29зюз572647 0.0 10232880
17:00+29зюз58256 0.0 10212864
20:00+25зюз373789 0.0 1020119
15 мая, сб
сб1523:00+21зюз37465 0.0 1020117
02:00+19з34505 0.0 102050
05:00+17з375263 0.0 1020107
08:00+23з36434 0.0 1020319
11:00+28з57325 0.0 10191621
14:00+30з682535 0.0 10182974
17:00+30зюз610265 0.0 10163018
20:00+26зсз512335 0.0 1015483
16 мая, вс
вс1623:00+21з39495 0.1 1016140
02:00+19зсз346177 0.6 101665
05:00+17з3566100 0.6 101787
08:00+23з5854100 0.0 1017387
11:00+28з693660 0.0 10161552
14:00+30зсз7112368 0.0 10162652
17:00+31зсз692016 0.0 10163463
20:00+26зсз223375 0.0 101518
17 мая, пн
пн1723:00+22з373827 0.0 1016107
02:00+19з38425 0.0 1016135
05:00+18зюз38515 0.0 1017120
08:00+24з59435 0.0 1016389
11:00+29з69284 0.0 10152354
14:00+31зюз8112291 0.0 10143661
17:00+31з6112268 0.0 10123930
20:00+26зсз51231100 0.0 1012445
18 мая, вт
вт1823:00+21з4949100 0.1 1012206
02:00+19зсз385437 0.0 1013148
05:00+18зсз2458100 0.0 101376
08:00+22зсз3647100 0.0 1013502
11:00+26з593693 0.0 10122615
14:00+25зсз6103762 0.0 10112245
17:00+21с6115210 0.1 10111203
20:00+16с6107298 0.1 10151087